TimeCDT,TemperatureF,Dew PointF,Humidity,Sea Level PressureIn,VisibilityMPH,Wind Direction,Wind SpeedMPH,Gust SpeedMPH,PrecipitationIn,Events,Conditions,WindDirDegrees,DateUTC
12:53 AM,62.1,55.9,80,29.98,10.0,SSE,10.4,-,N/A,,Mostly Cloudy,160,2012-10-22 05:53:00
1:53 AM,64.9,57.9,78,29.98,10.0,South,11.5,-,N/A,,Overcast,170,2012-10-22 06:53:00
2:53 AM,64.9,57.9,78,29.98,10.0,SSE,11.5,-,N/A,,Overcast,160,2012-10-22 07:53:00
3:53 AM,64.0,57.0,78,29.96,10.0,SSE,10.4,-,N/A,,Mostly Cloudy,160,2012-10-22 08:53:00
4:14 AM,62.6,57.2,82,29.97,10.0,South,10.4,-,N/A,,Partly Cloudy,170,2012-10-22 09:14:00
4:53 AM,63.0,55.9,78,29.96,10.0,South,11.5,-,N/A,,Clear,170,2012-10-22 09:53:00
5:53 AM,63.0,55.0,75,29.97,10.0,South,11.5,-,N/A,,Partly Cloudy,180,2012-10-22 10:53:00
6:53 AM,63.0,54.0,72,29.97,10.0,South,15.0,-,N/A,,Partly Cloudy,170,2012-10-22 11:53:00
8:53 AM,64.9,54.0,68,29.97,10.0,South,16.1,-,N/A,,Clear,170,2012-10-22 13:53:00
9:53 AM,68.0,55.0,63,29.99,10.0,South,17.3,-,N/A,,Clear,180,2012-10-22 14:53:00
10:31 AM,66.2,55.4,68,30.01,10.0,SSW,9.2,-,N/A,Thunderstorm,Mostly Cloudy,200,2012-10-22 15:31:00
10:53 AM,66.0,55.9,70,30.01,10.0,SSW,6.9,-,N/A,Thunderstorm,Thunderstorm,200,2012-10-22 15:53:00
10:56 AM,66.2,55.4,68,30.02,10.0,SSW,6.9,-,0.00,Rain-Thunderstorm,Light Thunderstorms and Rain,200,2012-10-22 15:56:00
11:44 AM,60.8,57.2,88,30.05,1.0,ENE,6.9,-,0.53,Rain-Thunderstorm,Thunderstorms and Rain,60,2012-10-22 16:44:00
11:51 AM,60.8,57.2,88,30.03,2.0,East,11.5,-,0.58,Rain-Thunderstorm,Thunderstorms and Rain,90,2012-10-22 16:51:00
12:02 PM,60.8,57.2,88,30.02,5.0,ESE,11.5,-,0.01,Rain-Thunderstorm,Thunderstorms and Rain,110,2012-10-22 17:02:00
12:53 PM,62.1,59.0,90,29.98,10.0,SE,15.0,-,0.04,Rain-Thunderstorm,Light Rain,140,2012-10-22 17:53:00
1:53 PM,63.0,60.1,90,29.95,10.0,SSE,17.3,25.3,0.00,Thunderstorm,Mostly Cloudy,150,2012-10-22 18:53:00
2:25 PM,64.4,60.8,88,29.95,10.0,SSE,16.1,-,N/A,,Partly Cloudy,150,2012-10-22 19:25:00
2:53 PM,64.9,61.0,87,29.92,10.0,SSE,18.4,-,N/A,,Clear,150,2012-10-22 19:53:00
3:53 PM,66.9,62.1,84,29.91,10.0,South,17.3,-,N/A,,Mostly Cloudy,170,2012-10-22 20:53:00
4:53 PM,66.9,62.1,84,29.92,10.0,South,11.5,-,N/A,,Clear,180,2012-10-22 21:53:00
5:53 PM,66.9,61.0,81,29.92,10.0,South,12.7,-,N/A,,Scattered Clouds,190,2012-10-22 22:53:00
6:53 PM,66.0,62.1,87,29.94,10.0,SSW,8.1,-,N/A,,Overcast,200,2012-10-22 23:53:00
7:53 PM,63.0,61.0,93,29.94,10.0,South,6.9,-,N/A,,Partly Cloudy,180,2012-10-23 00:53:00
8:53 PM,66.0,60.1,81,29.94,10.0,South,11.5,-,N/A,,Clear,190,2012-10-23 01:53:00
9:53 PM,64.9,57.0,75,29.94,10.0,South,11.5,-,N/A,,Clear,190,2012-10-23 02:53:00
10:53 PM,64.0,54.0,70,29.93,10.0,South,15.0,-,N/A,,Clear,190,2012-10-23 03:53:00
11:53 PM,64.0,54.0,70,29.93,10.0,SSW,16.1,-,N/A,,Clear,200,2012-10-23 04:53:00